This is the latest recevied weather packets stored in our database for station/object SQ9IWE-13. If no packets are shown the sender has not sent any weather packets the latest 10 day(s).
| Time | Temp. | Humidity | Pressure | Rain* | Wind** | Luminosity | Snow |
|---|---|---|---|---|---|---|---|
| 1777983001 | 27.22° C | 29% | 1007.6 hPa | - | - | - | - |
| 1777982401 | 27.22° C | 28% | 1007.6 hPa | - | - | - | - |
| 1777981801 | 26.11° C | 28% | 1007.7 hPa | - | - | - | - |
| 1777981201 | 27.22° C | 29% | 1007.6 hPa | - | - | - | - |
| 1777980601 | 27.78° C | 29% | 1007.7 hPa | - | - | - | - |
| 1777980001 | 27.22° C | 30% | 1007.8 hPa | - | - | - | - |
| 1777979401 | 26.11° C | 29% | 1007.9 hPa | - | - | - | - |
| 1777978801 | 27.22° C | 28% | 1007.8 hPa | - | - | - | - |
| 1777978201 | 30° C | 27% | 1008.1 hPa | - | - | - | - |
| 1777977601 | 29.44° C | 26% | 1008.1 hPa | - | - | - | - |
| 1777977001 | 28.33° C | 27% | 1008.1 hPa | - | - | - | - |
| 1777976401 | 27.78° C | 27% | 1008.3 hPa | - | - | - | - |
| 1777975801 | 28.33° C | 27% | 1008.2 hPa | - | - | - | - |
| 1777975201 | 28.89° C | 30% | 1008.4 hPa | - | - | - | - |
| 1777974601 | 27.78° C | 31% | 1008.4 hPa | - | - | - | - |
| 1777974001 | 28.33° C | 32% | 1008.5 hPa | - | - | - | - |
| 1777973401 | 27.78° C | 32% | 1008.7 hPa | - | - | - | - |
| 1777972201 | 27.22° C | 34% | 1009 hPa | - | - | - | - |
| 1777971601 | 27.22° C | 33% | 1009 hPa | - | - | - | - |
| 1777971001 | 25.56° C | 34% | 1009.1 hPa | - | - | - | - |
| 1777970401 | 26.11° C | 34% | 1009.2 hPa | - | - | - | - |
| 1777969801 | 26.67° C | 33% | 1009.4 hPa | - | - | - | - |
| 1777969201 | 26.67° C | 34% | 1009.5 hPa | - | - | - | - |
| 1777968601 | 26.11° C | 34% | 1009.6 hPa | - | - | - | - |
| 1777968001 | 25.56° C | 36% | 1009.8 hPa | - | - | - | - |
* Rain since midnight (hover to see other rain measurements)
** Current wind speed in m/s (hover to see current wind gust speed)